1511989200.67,2946,5.63,72270.8,-8.35,-9.45,-9.45,0,*67
1511989201.94,2947,5.63,72270.5,-8.35,-9.49,-9.37,0,*6F
1511989203.2,2948,5.63,72266.3,-8.35,-9.57,-9.57,0,*69
1511989204.46,2949,5.63,72272.3,-8.35,-9.49,-9.49,0,*68
1511989205.73,2950,5.63,72282.0,-8.35,-9.49,-9.37,0,*69
1511989206.98,2951,5.63,72274.5,-8.37,-9.45,-9.45,0,*63
1511989208.25,2952,5.63,72270.3,-8.35,-9.37,-9.45,0,*67
1511989209.52,2953,5.63,72268.3,-8.35,-9.49,-9.45,0,*6F
1511989210.79,2954,5.63,72270.5,-8.35,-9.49,-9.45,0,*68
1511989212.03,2955,5.63,72274.5,-8.37,-9.45,-9.37,0,*62
1511989213.3,2956,5.63,72268.3,-8.35,-9.45,-9.45,0,*66
1511989214.57,2957,5.63,72276.8,-8.35,-9.49,-9.49,0,*67
1511989215.81,2958,5.63,72264.5,-8.37,-9.49,-9.49,0,*6A
1511989217.05,2959,5.63,72264.0,-8.37,-9.45,-9.45,0,*6B
1511989218.33,2960,5.63,72260.5,-8.35,-9.45,-9.37,0,*66
1511989219.54,2961,5.63,72262.8,-8.37,-9.37,-9.31,0,*66
1511989220.73,2962,5.63,72274.3,-8.37,-9.31,-9.23,0,*60
1511989221.92,2963,5.63,72272.8,-8.37,-9.23,-9.31,0,*61
1511989223.14,2964,5.63,72270.5,-8.35,-9.23,-9.23,0,*67
1511989224.35,2965,5.63,72266.3,-8.35,-9.31,-9.31,0,*66
1511989225.6,2966,5.63,72256.8,-8.35,-9.31,-9.37,0,*63
1511989226.81,2967,5.63,72262.5,-8.37,-9.37,-9.31,0,*60
1511989228.0,2968,5.63,72266.3,-8.37,-9.31,-9.31,0,*69
1511989229.19,2969,5.63,72270.5,-8.37,-9.23,-9.23,0,*68
1511989230.38,2970,5.63,72274.8,-8.37,-9.23,-9.23,0,*60
1511989231.6,2971,5.63,72274.8,-8.37,-9.31,-9.37,0,*67
1511989232.82,2972,5.63,72272.3,-8.37,-9.37,-9.23,0,*67
1511989234.04,2973,5.63,72276.3,-8.35,-9.23,-9.23,0,*61
1511989235.25,2974,5.63,72280.3,-8.35,-9.31,-9.23,0,*65
1511989236.44,2975,5.63,72274.5,-8.37,-9.23,-9.23,0,*65
1511989237.63,2976,5.63,72272.0,-8.37,-9.23,-9.23,0,*66
1511989238.83,2977,5.63,72270.8,-8.37,-9.23,-9.23,0,*67
1511989240.01,2978,5.63,72274.0,-8.37,-9.23,-9.31,0,*6B
1511989241.23,2979,5.63,72270.8,-8.37,-9.31,-9.37,0,*6F
1511989242.46,2980,5.63,72276.8,-8.37,-9.31,-9.37,0,*69
1511989243.64,2981,5.63,72268.5,-8.37,-9.23,-9.31,0,*6D
1511989244.83,2982,5.63,72270.8,-8.37,-9.31,-9.31,0,*6D
1511989246.02,2983,5.63,72270.8,-8.37,-9.23,-9.31,0,*6F
1511989247.29,2984,5.63,72278.3,-8.35,-9.37,-9.37,0,*69
1511989248.54,2985,5.63,72282.8,-8.37,-9.37,-9.45,0,*6F
1511989249.81,2986,5.63,72288.3,-8.35,-9.45,-9.45,0,*6B
1511989251.06,2987,5.63,72292.5,-8.37,-9.45,-9.37,0,*6D
1511989252.3,2988,5.63,72292.0,-8.37,-9.45,-9.45,0,*67
1511989253.52,2989,5.63,72276.8,-8.37,-9.37,-9.31,0,*60
1511989254.73,2990,5.63,72264.3,-8.37,-9.37,-9.31,0,*68
1511989255.98,2991,5.63,72260.8,-8.37,-9.45,-9.45,0,*6F
1511989257.23,2992,5.63,72268.8,-8.39,-9.57,-9.49,0,*6D
1511989258.48,2993,5.63,72276.5,-8.37,-9.45,-9.45,0,*6D
1511989259.72,2994,5.63,72260.8,-8.37,-9.45,-9.37,0,*6F
1511989260.99,2995,5.63,72262.8,-8.35,-9.45,-9.49,0,*65
1511989262.22,2996,5.63,72250.0,-8.37,-9.57,-9.57,0,*68
1511989263.46,2997,5.63,72252.5,-8.37,-9.49,-9.49,0,*69
1511989264.7,2998,5.63,72256.8,-8.37,-9.49,-9.49,0,*66
1511989265.94,2999,5.63,72254.0,-8.37,-9.61,-9.57,0,*62
1511989267.17,3000,5.63,72252.5,-8.37,-9.57,-9.57,0,*6F
1511989268.4,3001,5.63,72246.8,-8.37,-9.57,-9.61,0,*6B
1511989269.64,3002,5.63,72244.8,-8.37,-9.57,-9.57,0,*6D
1511989270.87,3003,5.63,72272.3,-8.37,-9.57,-9.57,0,*6C
1511989272.1,3004,5.63,72270.3,-8.37,-9.57,-9.57,0,*6B
1511989273.31,3005,5.63,72266.5,-8.39,-9.67,-9.67,0,*64
1511989274.53,3006,5.63,72268.8,-8.39,-9.67,-9.67,0,*67
1511989275.79,3007,5.63,72272.0,-8.39,-9.61,-9.53,0,*67
1511989277.05,3008,5.63,72276.5,-8.39,-9.53,-9.61,0,*68
1511989278.29,3009,5.63,72278.3,-8.39,-9.67,-9.61,0,*6E
1511989279.55,3010,5.63,72260.0,-8.39,-9.61,-9.61,0,*60
1511989280.82,3011,5.63,72266.5,-8.39,-9.61,-9.53,0,*60
1511989282.06,3012,5.63,72282.8,-8.37,-9.61,-9.49,0,*66
1511989283.32,3013,5.63,72296.5,-8.39,-9.53,-9.61,0,*62
1511989284.55,3014,5.63,72282.5,-8.37,-9.57,-9.57,0,*6A
1511989285.77,3015,5.63,72272.0,-8.39,-9.75,-9.75,0,*65
1511989287.0,3016,5.63,72280.3,-8.39,-9.67,-9.61,0,*60
1511989288.27,3017,5.63,72278.3,-8.39,-9.53,-9.49,0,*6C
1511989289.53,3018,5.63,72292.3,-8.39,-9.53,-9.53,0,*68
1511989290.75,3019,5.63,72284.3,-8.39,-9.67,-9.67,0,*69
1511989292.01,3020,5.63,72294.5,-8.39,-9.61,-9.61,0,*63
1511989293.22,3021,5.63,72284.8,-8.39,-9.67,-9.67,0,*62
1511989294.46,3022,5.63,72292.0,-8.39,-9.61,-9.67,0,*67
1511989295.7,3023,5.63,72276.8,-8.37,-9.49,-9.49,0,*6E
1511989296.93,3024,5.63,72272.5,-8.37,-9.57,-9.49,0,*66
1511989298.2,3025,5.63,72286.5,-8.39,-9.61,-9.61,0,*66
1511989299.46,3026,5.63,72288.5,-8.39,-9.61,-9.53,0,*64
1511989300.72,3027,5.63,72290.8,-8.39,-9.53,-9.61,0,*65
1511989301.99,3028,5.63,72284.0,-8.39,-9.41,-9.49,0,*63
1511989303.26,3029,5.63,72280.0,-8.39,-9.41,-9.49,0,*62
1511989304.53,3030,5.63,72284.3,-8.39,-9.41,-9.49,0,*6A
1511989305.79,3031,5.63,72278.0,-8.39,-9.49,-9.49,0,*63
1511989307.04,3032,5.63,72272.3,-8.37,-9.45,-9.45,0,*6E
1511989308.28,3033,5.63,72272.8,-8.37,-9.45,-9.45,0,*6F
1511989309.55,3034,5.63,72266.3,-8.39,-9.49,-9.49,0,*66
1511989310.81,3035,5.63,72260.5,-8.39,-9.53,-9.61,0,*66
1511989312.05,3036,5.63,72250.5,-8.39,-9.61,-9.67,0,*62
1511989313.31,3037,5.63,72274.5,-8.39,-9.61,-9.49,0,*6F
1511989314.57,3038,5.63,72258.0,-8.39,-9.61,-9.61,0,*6A
1511989315.76,3039,5.63,72252.3,-8.41,-9.67,-9.67,0,*64
1511989317.0,3040,5.63,72254.3,-8.39,-9.53,-9.67,0,*62
1511989318.26,3041,5.63,72260.8,-8.39,-9.53,-9.53,0,*64
1511989319.51,3042,5.63,72256.0,-8.37,-9.45,-9.37,0,*6C
1511989320.78,3043,5.63,72258.3,-8.39,-9.49,-9.53,0,*6D
1511989322.04,3044,5.63,72256.3,-8.39,-9.53,-9.53,0,*61
1511989323.31,3045,5.63,72270.0,-8.39,-9.41,-9.41,0,*60
1511989324.55,3046,5.63,72260.0,-8.41,-9.49,-9.61,0,*66
1511989325.81,3047,5.63,72260.3,-8.39,-9.53,-9.53,0,*62
1511989327.08,3048,5.63,72254.8,-8.39,-9.49,-9.49,0,*6D
1511989328.35,3049,5.63,72260.5,-8.39,-9.41,-9.49,0,*64
1511989329.61,3050,5.63,72268.8,-8.39,-9.49,-9.49,0,*64
1511989330.86,3051,5.63,72264.3,-8.41,-9.49,-9.53,0,*61
1511989332.12,3052,5.63,72274.8,-8.39,-9.49,-9.49,0,*66
1511989333.37,3053,5.63,72272.5,-8.37,-9.37,-9.45,0,*6C
1511989334.63,3054,5.63,72262.0,-8.39,-9.49,-9.49,0,*60
1511989335.9,3055,5.63,72266.3,-8.39,-9.49,-9.49,0,*61
1511989337.16,3056,5.63,72278.5,-8.39,-9.53,-9.53,0,*62
1511989338.4,3057,5.63,72270.3,-8.41,-9.61,-9.61,0,*6C
1511989339.67,3058,5.63,72284.5,-8.39,-9.49,-9.53,0,*67
1511989340.93,3059,5.63,72284.3,-8.39,-9.49,-9.53,0,*66
1511989342.2,3060,5.63,72282.0,-8.39,-9.49,-9.53,0,*6C
1511989343.46,3061,5.63,72282.3,-8.39,-9.49,-9.41,0,*6E
1511989344.73,3062,5.63,72282.0,-8.39,-9.49,-9.49,0,*65
1511989345.99,3063,5.63,72286.3,-8.39,-9.53,-9.53,0,*64
1511989347.26,3064,5.63,72288.8,-8.39,-9.49,-9.49,0,*63
1511989348.52,3065,5.63,72288.8,-8.39,-9.49,-9.53,0,*69
1511989349.79,3066,5.63,72286.3,-8.39,-9.53,-9.61,0,*60
1511989351.05,3067,5.63,72280.0,-8.39,-9.41,-9.49,0,*68
1511989352.32,3068,5.63,72282.5,-8.39,-9.53,-9.53,0,*6F
1511989353.58,3069,5.63,72278.3,-8.39,-9.53,-9.61,0,*6F
1511989354.84,3070,5.63,72284.0,-8.39,-9.53,-9.49,0,*6D
1511989356.1,3071,5.63,72290.0,-8.39,-9.53,-9.61,0,*66
1511989357.37,3072,5.63,72280.3,-8.39,-9.49,-9.49,0,*64
1511989358.63,3073,5.63,72278.0,-8.39,-9.49,-9.49,0,*65
1511989359.87,3074,5.63,72278.0,-8.41,-9.49,-9.49,0,*6D
1511989361.11,3075,5.63,72274.8,-8.41,-9.49,-9.49,0,*6C
1511989362.38,3076,5.63,72274.5,-8.39,-9.53,-9.49,0,*6B
1511989363.64,3077,5.63,72274.3,-8.39,-9.53,-9.53,0,*61
1511989364.9,3078,5.63,72272.8,-8.39,-9.49,-9.49,0,*6E
1511989366.17,3079,5.63,72274.8,-8.39,-9.49,-9.49,0,*6F
1511989367.43,3080,5.63,72268.3,-8.39,-9.49,-9.49,0,*69
1511989368.7,3081,5.63,72264.5,-8.39,-9.53,-9.53,0,*68
1511989369.93,3082,5.63,72264.3,-8.41,-9.61,-9.61,0,*64
1511989371.2,3083,5.63,72266.5,-8.39,-9.53,-9.53,0,*6A
1511989372.44,3084,5.63,72266.5,-8.41,-9.61,-9.61,0,*62
1511989373.68,3085,5.63,72264.5,-8.41,-9.53,-9.53,0,*63
1511989374.94,3086,5.63,72262.3,-8.39,-9.53,-9.61,0,*6E
1511989376.21,3087,5.63,72264.0,-8.39,-9.41,-9.49,0,*66
1511989377.45,3088,5.63,72268.8,-8.41,-9.61,-9.53,0,*6F
1511989378.72,3089,5.63,72264.5,-8.39,-9.49,-9.53,0,*6B
1511989379.96,3090,5.63,72260.3,-8.41,-9.53,-9.53,0,*67
1511989381.22,3091,5.63,72258.3,-8.39,-9.49,-9.49,0,*69
1511989382.49,3092,5.63,72248.8,-8.39,-9.49,-9.41,0,*62
1511989383.75,3093,5.63,72250.3,-8.39,-9.49,-9.41,0,*63
1511989385.01,3094,5.63,72268.3,-8.39,-9.49,-9.49,0,*6C
1511989386.26,3095,5.63,72272.8,-8.41,-9.49,-9.53,0,*69
1511989387.5,3096,5.63,72270.5,-8.41,-9.53,-9.53,0,*61
1511989388.74,3097,5.63,72276.5,-8.41,-9.53,-9.53,0,*60
1511989390.0,3098,5.63,72278.0,-8.39,-9.49,-9.49,0,*60
1511989391.27,3099,5.63,72278.3,-8.39,-9.49,-9.41,0,*69
1511989392.51,3100,5.63,72264.3,-8.41,-9.49,-9.41,0,*67
1511989393.75,3101,5.63,72278.8,-8.41,-9.49,-9.41,0,*66
1511989394.99,3102,5.63,72296.8,-8.41,-9.53,-9.53,0,*6D
1511989396.23,3103,5.63,72268.8,-8.41,-9.41,-9.41,0,*6C
1511989397.48,3104,5.63,72284.5,-8.41,-9.41,-9.41,0,*6B
1511989398.72,3105,5.63,72288.3,-8.41,-9.49,-9.41,0,*62
1511989399.91,3106,5.63,72290.3,-8.41,-9.27,-9.27,0,*69
1511989401.13,3107,5.63,72264.5,-8.39,-9.23,-9.23,0,*67
1511989402.37,3108,5.63,72266.8,-8.41,-9.41,-9.41,0,*67
1511989403.62,3109,5.63,72280.3,-8.39,-9.27,-9.37,0,*68
1511989404.83,3110,5.63,72306.0,-8.39,-9.27,-9.27,0,*61
1511989406.03,3111,5.63,72292.8,-8.41,-9.27,-9.27,0,*6F
1511989407.22,3112,5.63,72304.3,-8.41,-9.27,-9.23,0,*68
1511989408.43,3113,5.63,72292.3,-8.39,-9.23,-9.23,0,*62
1511989409.65,3114,5.63,72298.3,-8.39,-9.23,-9.23,0,*65
1511989410.86,3115,5.63,72292.8,-8.39,-9.23,-9.27,0,*60
1511989412.08,3116,5.63,72276.0,-8.39,-9.23,-9.27,0,*63
1511989413.3,3117,5.63,72292.0,-8.39,-9.23,-9.27,0,*62
1511989414.52,3118,5.63,72302.3,-8.39,-9.23,-9.27,0,*6D
1511989415.73,3119,5.63,72304.5,-8.39,-9.23,-9.27,0,*6C
1511989416.95,3120,5.63,72298.0,-8.39,-9.23,-9.19,0,*6B
1511989418.16,3121,5.63,72292.8,-8.39,-9.23,-9.23,0,*63
1511989419.36,3122,5.63,72294.8,-8.41,-9.23,-9.27,0,*6B
1511989420.57,3123,5.63,72292.8,-8.39,-9.27,-9.27,0,*61
1511989421.77,3124,5.63,72296.5,-8.37,-9.23,-9.23,0,*68
1511989422.96,3125,5.63,72294.8,-8.37,-9.23,-9.23,0,*69
1511989424.15,3126,5.63,72296.3,-8.37,-9.23,-9.23,0,*6A
1511989425.34,3127,5.63,72306.8,-8.37,-9.23,-9.23,0,*6B
1511989426.53,3128,5.63,72308.5,-8.37,-9.23,-9.19,0,*6D
1511989427.72,3129,5.63,72300.5,-8.37,-9.31,-9.31,0,*65
1511989428.91,3130,5.63,72300.8,-8.37,-9.31,-9.23,0,*6E
1511989430.1,3131,5.63,72296.0,-8.37,-9.23,-9.23,0,*6C
1511989431.29,3132,5.63,72288.0,-8.37,-9.31,-9.23,0,*6C
1511989432.48,3133,5.63,72276.5,-8.37,-9.19,-9.23,0,*67
1511989433.67,3134,5.63,72286.3,-8.37,-9.23,-9.23,0,*69
1511989434.87,3135,5.63,72284.0,-8.37,-9.23,-9.23,0,*68
1511989436.08,3136,5.63,72282.0,-8.35,-9.23,-9.23,0,*69
1511989437.27,3137,5.63,72276.3,-8.37,-9.19,-9.23,0,*63
1511989438.47,3138,5.63,72278.8,-8.37,-9.19,-9.19,0,*65
1511989439.66,3139,5.63,72270.3,-8.37,-9.19,-9.19,0,*64
1511989440.88,3140,5.63,72264.8,-8.35,-9.23,-9.19,0,*61
1511989442.12,3141,5.63,72256.3,-8.35,-9.23,-9.37,0,*6C
1511989443.34,3142,5.63,72258.0,-8.37,-9.31,-9.37,0,*6E
1511989444.53,3143,5.63,72246.3,-8.37,-9.31,-9.23,0,*6A
1511989445.75,3144,5.63,72242.5,-8.35,-9.31,-9.23,0,*6F
1511989446.97,3145,5.63,72246.0,-8.35,-9.19,-9.19,0,*6D
1511989448.16,3146,5.63,72250.3,-8.37,-9.31,-9.23,0,*6F
1511989449.41,3147,5.63,72252.0,-8.37,-9.37,-9.45,0,*68
1511989450.68,3148,5.63,72256.0,-8.35,-9.37,-9.45,0,*65
1511989451.95,3149,5.63,72258.3,-8.35,-9.37,-9.45,0,*64
1511989453.2,3150,5.63,72258.8,-8.35,-9.37,-9.23,0,*6C
1511989454.42,3151,5.63,72266.3,-8.35,-9.23,-9.23,0,*68
1511989455.63,3152,5.63,72274.8,-8.35,-9.23,-9.23,0,*6B
1511989456.82,3153,5.63,72274.5,-8.37,-9.31,-9.23,0,*6B
1511989458.04,3154,5.63,72270.5,-8.35,-9.23,-9.23,0,*6D
1511989459.26,3155,5.63,72268.0,-8.35,-9.23,-9.23,0,*6C
1511989460.45,3156,5.63,72270.0,-8.37,-9.23,-9.23,0,*6D
1511989461.67,3157,5.63,72264.5,-8.35,-9.23,-9.23,0,*6E
1511989462.88,3158,5.63,72260.5,-8.35,-9.23,-9.23,0,*61
1511989464.1,3159,5.63,72262.3,-8.35,-9.31,-9.31,0,*60
1511989465.29,3160,5.63,72258.8,-8.37,-9.23,-9.23,0,*68
1511989466.5,3161,5.63,72254.0,-8.35,-9.23,-9.23,0,*6B
1511989467.72,3162,5.63,72252.3,-8.35,-9.31,-9.31,0,*68
1511989468.93,3163,5.63,72244.5,-8.35,-9.23,-9.23,0,*69
1511989470.15,3164,5.63,72244.3,-8.35,-9.23,-9.23,0,*6E
1511989471.37,3165,5.63,72242.8,-8.35,-9.23,-9.23,0,*6F
1511989472.58,3166,5.63,72240.0,-8.35,-9.31,-9.23,0,*6F
1511989473.78,3167,5.63,72246.0,-8.33,-9.19,-9.19,0,*6B
1511989474.97,3168,5.63,72252.8,-8.33,-9.19,-9.27,0,*69
1511989476.21,3169,5.63,72260.0,-8.35,-9.37,-9.31,0,*65
1511989477.48,3170,5.63,72270.5,-8.35,-9.45,-9.37,0,*6E
1511989478.75,3171,5.63,72274.8,-8.35,-9.37,-9.45,0,*6F
1511989480.03,3172,5.63,72276.0,-8.35,-9.37,-9.45,0,*6C
1511989481.24,3173,5.63,72262.3,-8.35,-9.31,-9.31,0,*68
1511989482.46,3174,5.63,72250.0,-8.35,-9.23,-9.31,0,*6C
1511989483.7,3175,5.63,72236.5,-8.35,-9.37,-9.31,0,*68
1511989484.88,3176,5.63,72232.5,-8.33,-9.31,-9.31,0,*6B
1511989486.07,3177,5.63,72240.3,-8.33,-9.31,-9.31,0,*6A
1511989487.32,3178,5.63,72250.0,-8.33,-9.41,-9.41,0,*65
1511989488.53,3179,5.63,72250.8,-8.33,-9.31,-9.41,0,*63
1511989489.73,3180,5.63,72246.8,-8.33,-9.27,-9.19,0,*6F
1511989490.92,3181,5.63,72248.0,-8.33,-9.31,-9.27,0,*64
1511989492.11,3182,5.63,72254.8,-8.33,-9.31,-9.27,0,*67
1511989493.3,3183,5.63,72252.5,-8.33,-9.31,-9.31,0,*61
1511989494.49,3184,5.63,72260.8,-8.33,-9.31,-9.31,0,*66
1511989495.7,3185,5.63,72262.3,-8.33,-9.41,-9.31,0,*60
1511989496.89,3186,5.63,72268.3,-8.33,-9.31,-9.31,0,*64
1511989498.13,3187,5.63,72272.0,-8.33,-9.41,-9.41,0,*65
1511989499.35,3188,5.63,72268.3,-8.33,-9.31,-9.41,0,*6D
1511989500.54,3189,5.63,72268.8,-8.33,-9.31,-9.19,0,*61
1511989501.74,3190,5.63,72270.3,-8.33,-9.27,-9.27,0,*63
1511989502.93,3191,5.63,72270.0,-8.33,-9.27,-9.27,0,*62
1511989504.12,3192,5.63,72268.3,-8.33,-9.27,-9.31,0,*66
1511989505.3,3193,5.63,72274.5,-8.33,-9.31,-9.31,0,*60
1511989506.5,3194,5.63,72274.3,-8.33,-9.31,-9.19,0,*6D
1511989507.69,3195,5.63,72272.8,-8.33,-9.19,-9.19,0,*66
1511989508.88,3196,5.63,72272.0,-8.33,-9.27,-9.19,0,*68
1511989510.12,3197,5.63,72276.0,-8.33,-9.45,-9.41,0,*60
1511989511.37,3198,5.63,72274.3,-8.29,-9.45,-9.41,0,*64
1511989512.61,3199,5.63,72272.8,-8.33,-9.45,-9.45,0,*6A
1511989513.86,3200,5.63,72268.0,-8.33,-9.41,-9.45,0,*6D
1511989515.1,3201,5.63,72268.3,-8.33,-9.45,-9.45,0,*68
1511989516.34,3202,5.56,72276.5,-8.29,-9.53,-9.41,0,*63
1511989517.58,3203,5.63,72260.3,-8.33,-9.53,-9.53,0,*6A
1511989518.82,3204,5.63,72264.5,-8.33,-9.53,-9.45,0,*6A
1511989520.09,3205,5.63,72274.3,-8.35,-9.49,-9.49,0,*6A
1511989521.36,3206,5.63,72278.8,-8.35,-9.45,-9.37,0,*6C
1511989522.6,3207,5.56,72280.8,-8.35,-9.37,-9.31,0,*6E
1511989523.79,3208,5.63,72284.3,-8.33,-9.27,-9.31,0,*66
1511989525.06,3209,5.63,72290.5,-8.35,-9.45,-9.37,0,*63
1511989526.31,3210,5.63,72286.3,-8.33,-9.41,-9.41,0,*68
1511989527.49,3211,5.63,72276.3,-8.33,-9.31,-9.31,0,*69
1511989528.71,3212,5.63,72264.8,-8.33,-9.41,-9.31,0,*6D
1511989529.96,3213,5.63,72260.5,-8.33,-9.41,-9.45,0,*6F
1511989531.2,3214,5.63,72254.3,-8.33,-9.45,-9.45,0,*6C
1511989532.45,3215,5.56,72250.3,-8.29,-9.53,-9.53,0,*66
1511989533.69,3216,5.63,72214.8,-8.33,-9.53,-9.53,0,*6E
1511989534.91,3217,5.63,72208.0,-8.33,-9.67,-9.53,0,*68
1511989536.16,3218,5.63,72228.0,-8.35,-9.57,-9.57,0,*66
1511989537.42,3219,5.63,72228.5,-8.35,-9.57,-9.57,0,*67
1511989538.65,3220,5.63,72232.8,-8.37,-9.57,-9.61,0,*6A
1511989539.89,3221,5.63,72226.0,-8.35,-9.61,-9.71,0,*6D
1511989541.12,3222,5.63,72236.0,-8.35,-9.71,-9.71,0,*6F
1511989542.38,3223,5.56,72240.0,-8.35,-9.61,-9.61,0,*6E
1511989543.64,3224,5.63,72252.5,-8.35,-9.57,-9.49,0,*66
1511989544.91,3225,5.63,72258.3,-8.35,-9.49,-9.49,0,*68
1511989546.18,3226,5.63,72262.8,-8.35,-9.45,-9.45,0,*6B
1511989547.45,3227,5.63,72260.0,-8.35,-9.37,-9.45,0,*6F
1511989548.69,3228,5.63,72266.8,-8.37,-9.49,-9.49,0,*67
1511989549.93,3229,5.63,72268.3,-8.33,-9.53,-9.53,0,*62
1511989551.2,3230,5.56,72258.8,-8.35,-9.49,-9.49,0,*6C
1511989552.46,3231,5.63,72260.0,-8.35,-9.57,-9.45,0,*6E
1511989553.73,3232,5.63,72262.0,-8.35,-9.37,-9.49,0,*67
1511989555.01,3233,5.63,72264.5,-8.35,-9.37,-9.45,0,*6A
1511989556.28,3234,5.63,72266.5,-8.35,-9.37,-9.37,0,*68
1511989557.52,3235,5.56,72264.5,-8.35,-9.37,-9.31,0,*6F
1511989558.74,3236,5.63,72262.5,-8.35,-9.31,-9.31,0,*6A
1511989559.98,3237,5.63,72262.8,-8.35,-9.23,-9.37,0,*6E
1511989561.2,3238,5.56,72258.0,-8.37,-9.23,-9.37,0,*63
1511989562.42,3239,5.63,72258.8,-8.35,-9.31,-9.31,0,*65
1511989563.63,3240,5.63,72258.8,-8.35,-9.31,-9.31,0,*6B
1511989564.82,3241,5.63,72256.8,-8.33,-9.19,-9.27,0,*61
1511989566.02,3242,5.63,72258.0,-8.33,-9.19,-9.19,0,*6F
1511989567.2,3243,5.63,72260.0,-8.33,-9.27,-9.31,0,*69
1511989568.42,3244,5.63,72256.3,-8.33,-9.31,-9.41,0,*6E
1511989569.61,3245,5.56,72254.0,-8.33,-9.31,-9.31,0,*68
1511989570.8,3246,5.56,72254.5,-8.33,-9.27,-9.27,0,*6B
1511989571.99,3247,5.63,72262.3,-8.33,-9.31,-9.31,0,*6A
1511989573.18,3248,5.63,72262.3,-8.33,-9.31,-9.27,0,*62
1511989574.37,3249,5.63,72256.3,-8.33,-9.31,-9.31,0,*64
1511989575.56,3250,5.63,72250.8,-8.33,-9.31,-9.31,0,*6C
1511989576.75,3251,5.63,72252.3,-8.33,-9.27,-9.19,0,*60
1511989577.94,3252,5.63,72264.5,-8.33,-9.19,-9.19,0,*6E
1511989579.19,3253,5.63,72256.8,-8.29,-9.41,-9.45,0,*60
1511989580.38,3254,5.63,72254.0,-8.33,-9.31,-9.31,0,*68
1511989581.6,3255,5.56,72248.8,-8.29,-9.27,-9.41,0,*62
1511989582.79,3256,5.63,72252.5,-8.33,-9.27,-9.31,0,*6D
1511989583.98,3257,5.63,72236.8,-8.33,-9.27,-9.31,0,*6C
1511989585.22,3258,5.56,72232.3,-8.35,-9.31,-9.37,0,*64
1511989586.49,3259,5.56,72238.3,-8.35,-9.45,-9.45,0,*63
1511989587.73,3260,5.63,72242.8,-8.33,-9.61,-9.53,0,*6E
1511989588.98,3261,5.56,72246.0,-8.29,-9.53,-9.53,0,*65
1511989590.22,3262,5.63,72254.8,-8.29,-9.53,-9.45,0,*61
1511989591.43,3263,5.63,72254.0,-8.33,-9.45,-9.31,0,*6F
1511989592.65,3264,5.63,72250.5,-8.33,-9.31,-9.41,0,*6C
1511989593.87,3265,5.56,72258.8,-8.33,-9.31,-9.45,0,*69
1511989595.09,3266,5.56,72266.0,-8.33,-9.41,-9.31,0,*6E
1511989596.3,3267,5.56,72250.8,-8.33,-9.41,-9.31,0,*6F
1511989597.56,3268,5.56,72268.3,-8.35,-9.57,-9.49,0,*6E
1511989598.84,3269,5.56,72268.0,-8.35,-9.37,-9.37,0,*60
1511989600.05,3270,5.63,72276.5,-8.35,-9.23,-9.31,0,*6B
1511989601.24,3271,5.63,72268.3,-8.33,-9.27,-9.27,0,*6F
1511989602.49,3272,5.56,72264.0,-8.33,-9.41,-9.41,0,*6C
1511989603.73,3273,5.63,72254.3,-8.33,-9.41,-9.41,0,*6D
1511989605.01,3274,5.63,72250.8,-8.35,-9.37,-9.37,0,*6C
1511989606.28,3275,5.56,72264.0,-8.35,-9.45,-9.37,0,*68
1511989607.47,3276,5.56,72266.8,-8.33,-9.31,-9.31,0,*68
1511989608.69,3277,5.56,72260.0,-8.29,-9.31,-9.41,0,*65
1511989609.96,3278,5.56,72262.5,-8.35,-9.45,-9.37,0,*65
1511989611.17,3279,5.63,72260.5,-8.35,-9.31,-9.23,0,*62
1511989612.39,3280,5.56,72252.0,-8.35,-9.31,-9.31,0,*67
1511989613.66,3281,5.63,72254.0,-8.35,-9.49,-9.45,0,*6A
1511989614.85,3282,5.63,72268.5,-8.33,-9.27,-9.27,0,*63
1511989616.04,3283,5.56,72270.3,-8.33,-9.27,-9.19,0,*6F
1511989617.23,3284,5.63,72276.3,-8.33,-9.31,-9.31,0,*65
1511989618.42,3285,5.63,72274.5,-8.33,-9.31,-9.31,0,*64
1511989619.66,3286,5.56,72264.8,-8.35,-9.31,-9.37,0,*67
1511989620.86,3287,5.63,72266.5,-8.33,-9.19,-9.27,0,*6B
1511989622.05,3288,5.56,72274.8,-8.33,-9.27,-9.27,0,*69
1511989623.24,3289,5.56,72272.3,-8.33,-9.19,-9.27,0,*65
1511989624.46,3290,5.56,72268.8,-8.35,-9.31,-9.31,0,*66
1511989625.7,3291,5.63,72264.0,-8.35,-9.31,-9.37,0,*61
1511989626.9,3292,5.56,72264.5,-8.33,-9.27,-9.27,0,*62
1511989628.09,3293,5.56,72268.3,-8.33,-9.27,-9.19,0,*6E
1511989629.28,3294,5.63,72270.3,-8.33,-9.27,-9.31,0,*63
1511989630.47,3295,5.63,72270.3,-8.33,-9.27,-9.31,0,*62
1511989631.66,3296,5.56,72274.3,-8.33,-9.27,-9.27,0,*66
1511989632.85,3297,5.56,72272.0,-8.33,-9.19,-9.19,0,*67
1511989634.04,3298,5.56,72274.5,-8.33,-9.19,-9.31,0,*62
1511989635.23,3299,5.56,72274.3,-8.33,-9.27,-9.31,0,*6E
1511989636.42,3300,5.56,72270.5,-8.33,-9.27,-9.19,0,*65
1511989637.61,3301,5.56,72266.5,-8.33,-9.19,-9.27,0,*64
1511989638.8,3302,5.56,72264.5,-8.33,-9.31,-9.31,0,*6A
1511989639.99,3303,5.56,72266.3,-8.33,-9.31,-9.31,0,*6B
1511989641.17,3304,5.63,72268.0,-8.33,-9.31,-9.31,0,*6C
1511989642.36,3305,5.63,72270.0,-8.33,-9.31,-9.31,0,*6D
1511989643.55,3306,5.56,72256.5,-8.33,-9.31,-9.31,0,*6E
1511989644.79,3307,5.56,72262.0,-8.33,-9.45,-9.41,0,*6B
1511989646.03,3308,5.56,72262.0,-8.33,-9.45,-9.41,0,*64
1511989647.28,3309,5.56,72264.5,-8.33,-9.41,-9.45,0,*65
1511989648.52,3310,5.56,72270.3,-8.33,-9.53,-9.53,0,*69
1511989649.77,3311,5.56,72272.5,-8.33,-9.45,-9.53,0,*6F
1511989651.01,3312,5.56,72274.5,-8.33,-9.45,-9.45,0,*6B
1511989652.25,3313,5.63,72278.0,-8.33,-9.45,-9.41,0,*6E
1511989653.5,3314,5.56,72276.3,-8.33,-9.41,-9.41,0,*6D
1511989654.77,3315,5.56,72276.3,-8.35,-9.45,-9.45,0,*6A
1511989656.04,3316,5.56,72268.5,-8.35,-9.49,-9.49,0,*69
1511989657.31,3317,5.63,72276.3,-8.35,-9.45,-9.45,0,*68
1511989658.56,3318,5.56,72270.5,-8.35,-9.57,-9.57,0,*67
1511989659.81,3319,5.56,72268.5,-8.37,-9.37,-9.45,0,*61
1511989661.09,3320,5.63,72278.5,-8.35,-9.37,-9.37,0,*6C
1511989662.3,3321,5.56,72276.8,-8.35,-9.31,-9.31,0,*6D
1511989663.52,3322,5.63,72274.3,-8.35,-9.31,-9.23,0,*6D
1511989664.7,3323,5.56,72268.0,-8.33,-9.31,-9.31,0,*69
1511989665.92,3324,5.63,72278.3,-8.33,-9.41,-9.31,0,*69
1511989667.19,3325,5.56,72262.0,-8.35,-9.45,-9.45,0,*69
1511989668.45,3326,5.56,72256.3,-8.35,-9.49,-9.49,0,*6A
1511989669.71,3327,5.56,72246.5,-8.35,-9.57,-9.57,0,*6B
1511989670.98,3328,5.56,72256.3,-8.35,-9.45,-9.45,0,*64
1511989672.25,3329,5.56,72256.0,-8.35,-9.45,-9.45,0,*65
1511989673.51,3330,5.56,72264.5,-8.35,-9.49,-9.57,0,*62
1511989674.77,3331,5.56,72264.0,-8.35,-9.57,-9.57,0,*6C
1511989676.03,3332,5.56,72266.0,-8.35,-9.49,-9.57,0,*60
1511989677.3,3333,5.56,72266.8,-8.35,-9.49,-9.45,0,*62
1511989678.57,3334,5.56,72260.8,-8.35,-9.45,-9.45,0,*69
1511989679.84,3335,5.56,72260.5,-8.35,-9.45,-9.45,0,*68
1511989681.12,3336,5.56,72264.0,-8.35,-9.37,-9.37,0,*6B
1511989682.39,3337,5.56,72264.0,-8.35,-9.37,-9.37,0,*6A
1511989683.67,3338,5.56,72278.3,-8.35,-9.37,-9.37,0,*65
1511989684.88,3339,5.56,72276.3,-8.35,-9.31,-9.31,0,*64
1511989686.1,3340,5.56,72252.5,-8.37,-9.31,-9.37,0,*6E
1511989687.34,3341,5.56,72244.8,-8.35,-9.37,-9.31,0,*6D
1511989688.55,3342,5.56,72254.0,-8.35,-9.23,-9.31,0,*6B
1511989689.74,3343,5.56,72256.0,-8.37,-9.31,-9.31,0,*6B
1511989690.98,3344,5.56,72250.5,-8.35,-9.37,-9.31,0,*68
1511989692.2,3345,5.56,72244.5,-8.37,-9.31,-9.37,0,*6B
1511989693.42,3346,5.56,72252.3,-8.35,-9.23,-9.31,0,*6F
1511989694.63,3347,5.56,72254.8,-8.35,-9.31,-9.31,0,*6D
1511989695.9,3348,5.56,72262.0,-8.35,-9.37,-9.37,0,*62
1511989697.15,3349,5.56,72262.8,-8.37,-9.37,-9.37,0,*61
1511989698.4,3350,5.56,72266.0,-8.35,-9.37,-9.23,0,*6E
1511989699.61,3351,5.56,72272.5,-8.35,-9.31,-9.23,0,*69
1511989700.83,3352,5.56,72266.3,-8.35,-9.23,-9.31,0,*6A
1511989702.07,3353,5.56,72266.8,-8.35,-9.31,-9.37,0,*6E
1511989703.29,3354,5.56,72272.8,-8.35,-9.31,-9.23,0,*6C
1511989704.48,3355,5.56,72282.3,-8.37,-9.23,-9.23,0,*6C
1511989705.7,3356,5.56,72280.8,-8.35,-9.23,-9.23,0,*6D
1511989706.97,3357,5.56,72282.0,-8.35,-9.49,-9.49,0,*6C
1511989708.21,3358,5.56,72268.5,-8.33,-9.45,-9.45,0,*65
1511989709.45,3359,5.56,72270.3,-8.33,-9.45,-9.41,0,*60
1511989710.71,3360,5.56,72272.0,-8.35,-9.57,-9.57,0,*68
1511989711.97,3361,5.56,72276.0,-8.35,-9.61,-9.61,0,*69
1511989713.24,3362,5.56,72280.5,-8.35,-9.61,-9.61,0,*6A
1511989714.5,3363,5.56,72248.5,-8.35,-9.49,-9.49,0,*6B
1511989715.74,3364,5.56,72242.5,-8.37,-9.49,-9.49,0,*6E
1511989717.01,3365,5.56,72258.3,-8.35,-9.45,-9.45,0,*6D
1511989718.28,3366,5.56,72262.5,-8.35,-9.61,-9.61,0,*6E
1511989719.54,3367,5.56,72262.5,-8.35,-9.57,-9.61,0,*6A
1511989720.8,3368,5.56,72254.3,-8.35,-9.57,-9.49,0,*6F
1511989722.03,3369,5.56,72266.0,-8.37,-9.57,-9.49,0,*6C
1511989723.27,3370,5.56,72266.3,-8.37,-9.57,-9.49,0,*64
1511989724.52,3371,5.56,72270.8,-8.35,-9.57,-9.57,0,*68
1511989725.73,3372,5.56,72260.3,-8.37,-9.57,-9.71,0,*6D
1511989727.0,3373,5.56,72254.3,-8.35,-9.61,-9.61,0,*6A
1511989728.23,3374,5.63,72250.8,-8.37,-9.57,-9.57,0,*6F